This demonstration page uses our WeatherBlox Daily Observations layout. Learn more.

Left ArrowRight Arrow

Hourly Observations for January 17, 2016

Temp ( °F °C ) Dew Point ( °F °C ) Humidity (%) Winds ( mph kmh ) Pressure ( in mb ) Visibility ( mi km ) Precip ( " mm )
12:04 am 00:04 Cloudy with Light Snow 9 -13 1 -17 72 72 N 18 30 30.36 1028 2 3 0.00 0.00
12:18 am 00:18 Cloudy with Light Snow 9 -13 1 -17 72 72 N 18 30 30.36 1028 3 5 0.00 0.00
12:54 am 00:54 Cloudy with Light Snow 7 -13.9 1 -17.2 76 76 N 15 24 30.26 1025 5 8 0.00 0.03
1:54 am 01:54 Cloudy with Light Snow 5 -15 -2 -18.9 72 72 NNE 15 24 30.28 1025 8 13 0.00 0.03
2:54 am 02:54 Cloudy 3 -16.1 -4 -20 72 72 NNE 13 20 30.30 1026 10 16 0.00 0.03
3:54 am 03:54 Clear -2 -18.9 -8 -22.2 75 75 N 10 17 30.33 1027 10 16 0.00 0.00
4:54 am 04:54 Clear -2 -18.9 -9 -22.8 72 72 NNW 8 13 30.37 1028 10 16 0.00 0.00
5:54 am 05:54 Clear -8 -22.2 -15 -26.1 71 71 N 7 11 30.39 1029 10 16 0.00 0.00
6:54 am 06:54 Clear -6 -21.1 -13 -25 71 71 NNW 3 6 30.40 1030 10 16 0.00 0.00
7:54 am 07:54 Sunny -6 -21.1 -12 -24.4 75 75 WNW 3 6 30.43 1030 10 16 0.00 0.00
8:54 am 08:54 Sunny -3 -19.4 -11 -23.9 68 68 WNW 6 9 30.45 1031 10 16 0.00 0.00
9:54 am 09:54 Sunny 0 -17.8 -10 -23.3 62 62 NNW 9 15 30.46 1031 10 16 0.00 0.03
10:54 am 10:54 Sunny 3 -16.1 -7 -21.7 62 62 NNW 14 22 30.47 1032 10 16 0.00 0.00
11:54 am 11:54 Sunny 5 -15 -6 -21.1 60 60 NNW 13 20 30.46 1032 10 16 0.00 0.00
12:54 pm 12:54 Sunny 7 -13.9 -4 -20 60 60 NNW 12 19 30.43 1031 10 16 0.00 0.00
1:54 pm 13:54 Sunny 9 -12.8 -4 -20 55 55 NNW 10 17 30.41 1030 10 16 0.00 0.00
2:54 pm 14:54 Sunny 10 -12.2 -3 -19.4 55 55 NNW 13 20 30.40 1030 10 16 0.00 0.00
3:54 pm 15:54 Sunny 10 -12.2 -3 -19.4 55 55 NW 10 17 30.42 1030 10 16 0.00 0.00
4:54 pm 16:54 Sunny 9 -12.8 -4 -20 55 55 NW 8 13 30.42 1030 10 16 0.00 0.00
5:54 pm 17:54 Clear 7 -13.9 -4 -20 60 60 WNW 5 7 30.45 1031 10 16 0.00 0.00
6:54 pm 18:54 Clear 4 -15.6 -4 -20 69 69 Calm 30.46 1032 10 16 0.00 0.00
7:54 pm 19:54 Clear 4 -15.6 -4 -20 69 69 W 3 6 30.47 1032 10 16 0.00 0.00
8:54 pm 20:54 Clear 2 -16.7 -5 -20.6 72 72 W 7 11 30.47 1032 10 16 0.00 0.00
9:54 pm 21:54 Clear 2 -16.7 -5 -20.6 72 72 Calm 30.47 1032 10 16 0.00 0.00
10:54 pm 22:54 Clear 2 -16.7 -5 -20.6 72 72 Calm 30.47 1032 10 16 0.00 0.00
11:54 pm 23:54 Clear 0 -17.8 -6 -21.1 76 76 Calm 30.48 1032 10 16 0.00 0.00

Powered by AerisWeather